Weather History for Hamilton Island, QU

Change the Weather History Date:

Wednesday, June 19, 2013

  Actual Average Record
Temperature  
Mean Temperature 67 °F -  
Max Temperature 68 °F - - ()
Min Temperature 66 °F - - ()
Cooling Degree Days 2    
Growing Degree Days 17 (Base 50)    
Moisture  
Dew Point 60 °F    
Average Humidity 79    
Maximum Humidity 100    
Minimum Humidity 60    
Precipitation  
Precipitation 0.00 in - - ()
Sea Level Pressure  
Sea Level Pressure 30.02 in    
Wind  
Wind Speed 13 mph ()    
Max Wind Speed 26 mph    
Max Gust Speed -    
T = Trace of Precipitation, MM = Missing Value Source: Averaged Metar Reports

Daily Weather History Graph

Daily Weather History Graph

Search for Another Location

Airport:

Trip Planner

Search our weather history database for the weather conditions in past years. The results will help you decide how hot, cold, wet, or windy it might be!

Date:

Astronomy

Jun. 19, 2013 Rise Set
Actual Time 6:38 AM AEST 5:32 PM AEST
Civil Twilight 6:14 AM AEST 5:56 PM AEST
Nautical Twilight 5:46 AM AEST 6:24 PM AEST
Astronomical Twilight 5:19 AM AEST 6:51 PM AEST
Moon 1:39 PM AEST (6/19) 1:47 AM AEST (6/19)
Length of Visible Light 11h 42m
Length of Day
10h 53m
Waxing Gibbous, 74% of the Moon is Illuminated
Jun 19
Waxing Gibbous
Jun 23
Full
Jun 30
Last Quarter
Jul 8
New
Jul 16
First Quarter

Hourly Weather History & Observations

Time (AEST) Temp. Dew Point Humidity Pressure Visibility Wind Dir Wind Speed Gust Speed Precip Events Conditions
12:00 AM 67 °F 65 °F 90% 30.01 in - South 5.8 mph - -  
12:00 AM 68.0 °F 64.4 °F 88% 30.01 in - South 5.8 mph - N/A   Unknown
12:30 AM 68.0 °F 64.4 °F 88% 30.01 in - South 10.4 mph - N/A   Unknown
1:00 AM 68.0 °F 64.4 °F 88% 30.01 in - South 10.4 mph - N/A   Unknown
1:30 AM 68.0 °F 64.4 °F 88% 30.01 in - South 9.2 mph - N/A   Unknown
2:00 AM 68.0 °F 64.4 °F 88% 29.98 in - South 10.4 mph - N/A   Unknown
2:30 AM 68.0 °F 64.4 °F 88% 29.98 in - South 11.5 mph - N/A   Unknown
3:00 AM 67 °F 65 °F 93% 29.99 in - South 11.5 mph - -  
3:00 AM 66.2 °F 66.2 °F 100% 29.98 in - South 11.5 mph - N/A   Unknown
3:30 AM 66.2 °F 66.2 °F 100% 29.98 in - South 11.5 mph - N/A   Unknown
4:00 AM 66.2 °F 66.2 °F 100% 29.98 in - South 10.4 mph - N/A   Unknown
4:30 AM 66.2 °F 64.4 °F 94% 29.98 in - SSE 9.2 mph - N/A   Unknown
5:00 AM 66.2 °F 64.4 °F 94% 29.98 in - SSE 10.4 mph - N/A   Unknown
5:30 AM 66.2 °F 64.4 °F 94% 29.98 in - South 12.7 mph - N/A   Unknown
6:00 AM 67 °F 65 °F 92% 30.00 in - South 12.7 mph - -  
6:00 AM 66.2 °F 64.4 °F 94% 29.98 in - South 12.7 mph - N/A   Unknown
6:30 AM 66.2 °F 64.4 °F 94% 30.01 in - SSE 12.7 mph - N/A   Unknown
7:00 AM 66.2 °F 64.4 °F 94% 30.01 in - SSE 11.5 mph - N/A   Unknown
7:30 AM 66.2 °F 64.4 °F 94% 30.01 in - SSE 13.8 mph - N/A   Unknown
8:00 AM 68.0 °F 60.8 °F 78% 30.04 in - SSE 17.3 mph - N/A   Unknown
8:30 AM 68.0 °F 62.6 °F 83% 30.04 in - SSE 18.4 mph - N/A   Unknown
9:00 AM 68 °F 63 °F 79% 30.05 in - SSE 23.0 mph - -  
9:00 AM 68.0 °F 62.6 °F 83% 30.04 in - SSE 23.0 mph - N/A   Unknown
9:30 AM 68.0 °F 60.8 °F 78% 30.04 in - SSE 25.3 mph - N/A   Unknown
10:00 AM 68.0 °F 60.8 °F 78% 30.04 in - SE 24.2 mph - N/A   Unknown
10:30 AM 68.0 °F 59.0 °F 73% 30.04 in - SSE 26.5 mph - N/A   Unknown
11:00 AM 68.0 °F 60.8 °F 78% 30.04 in - SSE 26.5 mph - N/A   Unknown
11:30 AM 68.0 °F 59.0 °F 73% 30.04 in - SSE 26.5 mph - N/A   Unknown
12:00 PM 67 °F 58 °F 66% 30.04 in - SE 24.2 mph - -  
12:00 PM 68.0 °F 59.0 °F 73% 30.04 in - SE 24.2 mph - N/A   Unknown
12:30 PM 68.0 °F 57.2 °F 68% 30.04 in - SE 21.9 mph - N/A   Unknown
1:00 PM 68.0 °F 59.0 °F 73% 30.01 in - SE 19.6 mph - N/A   Unknown
1:30 PM 68.0 °F 59.0 °F 73% 30.01 in - SE 18.4 mph - N/A   Unknown
2:00 PM 68.0 °F 57.2 °F 68% 30.01 in - SE 19.6 mph - N/A   Unknown
2:30 PM 68.0 °F 57.2 °F 68% 30.01 in - SE 17.3 mph - N/A   Unknown
3:00 PM 67 °F 56 °F 60% 30.00 in - SE 15.0 mph - -  
3:00 PM 68.0 °F 57.2 °F 68% 29.98 in - SE 15.0 mph - N/A   Unknown
3:30 PM 66.2 °F 57.2 °F 73% 29.98 in - SE 16.1 mph - N/A   Unknown
4:00 PM 66.2 °F 55.4 °F 68% 29.98 in - ESE 15.0 mph - N/A   Unknown
4:30 PM 66.2 °F 57.2 °F 73% 30.01 in - ESE 17.3 mph - N/A   Unknown
5:00 PM 66.2 °F 57.2 °F 73% 30.01 in - ESE 17.3 mph - N/A   Unknown
5:30 PM 66.2 °F 57.2 °F 73% 30.01 in - SE 17.3 mph - N/A   Unknown
6:00 PM 66 °F 56 °F 63% 30.02 in - ESE 16.1 mph - -  
6:00 PM 66.2 °F 57.2 °F 73% 30.01 in - ESE 16.1 mph - N/A   Unknown
6:30 PM 66.2 °F 57.2 °F 73% 30.01 in - ESE 15.0 mph - N/A   Unknown
7:00 PM 66.2 °F 57.2 °F 73% 30.04 in - ESE 15.0 mph - N/A   Unknown
7:30 PM 66.2 °F 57.2 °F 73% 30.04 in - ESE 16.1 mph - N/A   Unknown
8:00 PM 66.2 °F 57.2 °F 73% 30.04 in - SE 17.3 mph - N/A   Unknown
8:30 PM 66.2 °F 57.2 °F 73% 30.06 in - SE 17.3 mph - N/A   Unknown
9:00 PM 67 °F 57 °F 61% 30.07 in - SE 17.3 mph - -  
9:00 PM 66.2 °F 57.2 °F 73% 30.06 in - SE 17.3 mph - N/A   Unknown
9:30 PM 66.2 °F 57.2 °F 73% 30.06 in - SE 17.3 mph - N/A   Unknown
10:00 PM 66.2 °F 55.4 °F 68% 30.06 in - SE 17.3 mph - N/A   Unknown
10:30 PM 66.2 °F 57.2 °F 73% 30.06 in - SE 18.4 mph - N/A   Unknown
11:00 PM 66.2 °F 57.2 °F 73% 30.06 in - SE 17.3 mph - N/A   Unknown
11:30 PM 66.2 °F 59.0 °F 78% 30.06 in - SE 16.1 mph - N/A   Unknown